Welcome to our new website - Welkom op onze vernieuwde website - Bienvenue sur notre nouveau site web - Willkommen auf unserer neuen Website
Check our progress frequently. Prüfen Sie unsere Fortschritte regelmäßig. Consultez notre progression fréquemment. Komt u straks nog eens terug

Bezoek ook deze websites:

Template documentation
and downloads

And another site



Het weer levert geen direct gevaar op.    Er zijn geen waarschuwingen afgegeven.

Select another period ( hide this area )

Eenheden Periode Custom range Directly to
Metrisch Engels Beide
Dagelijkse Wekelijkse Maandelijkse Jaarlijkse
use both date-selectors for a custom range
previous Dag
With this date

WeatherUnderground graphs for this period ( click here )


Dagelijkse Samenvatting Maandag 17 februari 2020
Tijd Temp. ( °C ) Dew pt. ( °C ) Wind ( km/h ) van Windvlaag ( km/h ) Luchtdruk ( hPa ) Humid.( % ) Rainrate ( cm )
Hoog11,1 6,7 29,0 Zuiden ( 121/306 ) 29,0 1010,2 86 0,76
Gemiddeld8,4 4,2 1,6 Kalm #142/193 5,4 1008,0 75 1,00
Laag6,4 2,4 -   0,0 1002,7 63 -
Dagelijkse Tabular details for Maandag 17 februari 2020
Tijd Temp. ( °C ) Dew pt. ( °C ) Wind ( km/h ) van Windvlaag ( km/h ) Luchtdruk ( hPa ) Humid.( % ) Rainrate ( cm )
00:04 8,9 6,7   Kalm 10,0 1002,7 85 -
00:09 8,9 6,5 1,0 ZZO 10,0 1002,7 85 -
00:14 8,9 6,5 8,0 ZW 8,0 1003,1 85 -
00:19 9,0 6,7   Kalm 10,0 1003,1 85 -
00:24 9,0 6,4 16,0 Zuiden 16,0 1003,1 84 -
00:29 9,1 6,5   Kalm 16,0 1003,1 84 -
00:34 9,1 6,7 16,0 ZZW 16,0 1003,1 84 -
00:39 9,1 6,4   Kalm 16,0 1003,4 83 -
00:44 9,1 6,4 3,0 ZO 18,0 1003,4 83 -
00:49 9,1 6,4   Kalm 18,0 1003,4 83 -
00:54 9,1 6,4 18,0 OZO 18,0 1003,4 83 -
00:59 9,1 6,4 3,0 Zuiden 3,0 1003,7 83 -
01:04 9,1 6,2   Kalm 8,0 1003,4 82 -
01:09 9,1 6,2   Kalm   1003,4 82 -
01:14 9,1 6,0   Kalm   1003,7 81 -
01:19 9,2 6,1   Kalm   1003,7 81 -
01:24 9,0 5,7   Kalm   1003,7 81 0,51
01:29 8,6 5,5   Kalm   1004,1 83 0,51
01:34 8,1 5,6   Kalm   1004,1 85 0,51
01:39 7,9 5,7   Kalm   1004,1 86 0,51
01:44 7,9 5,7   Kalm   1004,1 86 0,51
01:49 7,8 5,6   Kalm   1004,1 86 0,51
01:54 7,9 5,5   Kalm   1004,4 85 0,51
01:59 7,9 5,5   Kalm   1004,4 85 0,51
02:04 8,1 5,1   Kalm   1004,4 82 0,51
02:09 8,1 5,0   Kalm   1004,4 81 0,51
02:14 8,2 4,9   Kalm   1004,7 80 0,51
02:19 8,3 4,8   Kalm   1004,7 79 0,51
02:24 8,3 4,7   Kalm   1004,7 78 0,51
02:29 8,4 4,6   Kalm   1004,7 77 -
02:34 8,5 4,7   Kalm   1004,7 77 -
02:39 8,6 4,8   Kalm   1005,1 77 -
02:44 8,7 4,9   Kalm   1005,1 77 0,25
02:49 8,7 5,1   Kalm   1005,4 78 0,25
02:54 8,7 4,9   Kalm   1005,4 77 0,25
02:59 8,6 4,6   Kalm   1005,8 76 0,25
03:04 8,6 4,6   Kalm   1005,8 76 0,25
03:09 8,5 4,3   Kalm   1005,8 75 0,25
03:14 8,5 4,1   Kalm   1006,1 74 0,25
03:19 8,5 3,9   Kalm   1006,1 73 0,25
03:24 8,5 3,9   Kalm   1006,4 73 0,25
03:29 8,4 3,8   Kalm   1006,4 73 0,25
03:34 8,3 3,9   Kalm   1006,4 74 0,25
03:39 8,3 3,9   Kalm   1006,4 74 0,25
03:44 8,2 3,8   Kalm   1006,4 74 0,25
03:49 8,2 3,8   Kalm   1006,4 74 -
03:54 8,2 3,8   Kalm   1006,8 74 -
03:59 8,2 3,8   Kalm   1006,8 74 -
04:04 8,1 3,9   Kalm   1007,1 74 -
04:09 8,0 3,6   Kalm   1007,1 74 -
04:14 7,9 3,6   Kalm   1007,1 74 -
04:19 7,9 3,4   Kalm   1007,5 73 -
04:24 7,9 3,2   Kalm   1007,5 72 -
04:29 7,9 3,2   Kalm   1007,5 72 -
04:34 7,8 3,1   Kalm   1007,5 72 -
04:39 7,9 3,0   Kalm   1007,8 71 -
04:44 7,9 3,0   Kalm   1007,5 71 -
04:49 7,9 3,0   Kalm   1007,5 71 -
04:54 7,9 3,1   Kalm   1007,8 72 -
04:59 7,8 3,1   Kalm   1007,8 72 -
05:04 7,7 3,0   Kalm   1007,8 72 -
05:09 7,7 3,0   Kalm   1007,8 72 -
05:14 7,7 3,2   Kalm   1008,1 73 -
05:19 7,6 3,1   Kalm   1008,1 73 -
05:24 7,6 3,1   Kalm   1008,1 73 -
05:29 7,5 3,0   Kalm   1008,5 73 -
05:34 7,5 3,0   Kalm   1008,5 73 -
05:39 7,4 2,9   Kalm   1008,5 73 -
05:44 7,3 2,8   Kalm   1008,5 73 -
05:49 7,3 2,8   Kalm   1008,5 73 -
05:54 7,3 2,8   Kalm   1008,5 73 -
05:59 7,3 2,6   Kalm   1008,5 72 -
06:04 7,3 2,6   Kalm   1008,5 72 -
06:09 7,2 2,5   Kalm   1008,8 72 -
06:14 7,2 2,5   Kalm   1008,8 72 -
06:19 7,1 2,4   Kalm   1008,8 72 -
06:24 7,1 2,6   Kalm   1008,8 73 -
06:29 7,1 2,6   Kalm   1008,8 73 -
06:34 7,1 2,6   Kalm   1008,8 73 -
06:39 7,0 2,6   Kalm   1008,8 74 -
06:44 6,9 2,6   Kalm   1008,8 74 -
06:49 6,9 2,8   Kalm   1008,8 75 -
06:54 6,8 2,7   Kalm   1008,8 75 -
06:59 6,8 2,7   Kalm   1008,8 75 -
07:04 6,8 2,9   Kalm   1008,8 76 -
07:09 6,8 2,9   Kalm   1009,1 76 -
07:14 6,7 2,8   Kalm   1009,1 76 -
07:19 6,7 2,9   Kalm   1009,1 77 -
07:24 6,6 2,7   Kalm   1009,1 76 -
07:29 6,6 2,9   Kalm   1009,1 77 -
07:34 6,6 2,9   Kalm   1009,1 77 -
07:39 6,6 2,9   Kalm   1009,1 77 -
07:44 6,5 2,8   Kalm   1009,1 77 -
07:49 6,4 2,8   Kalm   1009,1 77 -
07:54 6,4 2,7   Kalm   1009,1 77 -
07:59 6,4 2,7   Kalm   1009,1 77 -
08:04 6,4 2,8   Kalm   1009,1 77 -
08:09 6,4 2,8   Kalm   1009,1 78 -
08:14 6,4 2,8   Kalm   1009,1 78 -
08:19 6,5 3,1   Kalm   1009,1 79 -
08:24 6,6 3,2   Kalm   1009,1 79 -
08:29 6,6 3,2   Kalm   1009,5 79 -
08:34 6,7 3,5   Kalm   1009,1 80 -
08:39 6,7 3,5   Kalm   1009,1 80 -
08:44 6,7 3,5   Kalm   1009,1 80 -
08:49 6,8 3,6 2,0 Zuiden 2,0 1009,5 80 -
08:54 6,8 3,6   Kalm 5,0 1009,5 80 -
08:59 6,9 3,7   Kalm   1009,1 80 -
09:04 7,1 3,9 1,0 ZZO 5,0 1009,5 80 -
09:09 7,2 4,0   Kalm 2,0 1009,5 80 -
09:14 7,3 3,9 2,0 ZZW 2,0 1009,5 79 -
09:19 7,4 4,0 1,0 ZZW 6,0 1009,5 79 -
09:24 7,6 4,0   Kalm   1009,5 78 -
09:29 7,6 4,0 1,0 ZZW 15,0 1009,5 78 -
09:34 7,7 4,1 1,0 Zuiden 6,0 1009,5 78 -
09:39 7,8 4,2 20,0 Zuiden 19,0 1009,5 78 -
09:44 7,9 4,2 11,0 ZZW 13,0 1009,5 78 -
09:49 8,0 4,2 8,0 Zuiden 23,0 1009,5 77 -
09:54 8,1 4,3 1,0 Zuiden 2,0 1009,5 77 -
09:59 8,2 4,4 10,0 Zuiden 16,0 1009,5 77 -
10:04 8,3 4,4 5,0 ZZW 5,0 1009,5 77 -
10:09 8,3 4,3   Kalm 16,0 1009,5 76 -
10:14 8,4 4,4   Kalm 2,0 1009,5 76 -
10:19 8,6 4,6   Kalm 5,0 1009,5 76 -
10:24 8,7 4,6 1,0 Zuiden 2,0 1009,5 76 -
10:29 8,7 4,5   Kalm 13,0 1009,5 75 -
10:34 8,8 4,6   Kalm 19,0 1009,5 75 -
10:39 8,9 4,5 5,0 Zuiden 23,0 1009,5 74 -
10:44 9,1 4,7 13,0 ZZO 23,0 1009,5 74 -
10:49 9,2 4,8   Kalm 23,0 1009,5 74 -
10:54 9,3 4,8 1,0 WZW 5,0 1009,5 74 -
10:59 9,4 4,6   Kalm 5,0 1009,8 72 -
11:04 9,6 4,6   Kalm 10,0 1009,8 71 -
11:09 9,7 4,7   Kalm 16,0 1009,8 71 -
11:14 9,8 4,7 3,0 ZZW 6,0 1009,8 71 -
11:19 9,9 4,7 16,0 ZW 16,0 1009,8 70 -
11:24 9,9 4,7   Kalm 16,0 1009,8 70 -
11:29 10,0 4,6   Kalm 10,0 1010,2 69 -
11:34 10,1 4,6   Kalm 10,0 1010,2 69 -
11:39 10,1 4,5 8,0 ZZO 10,0 1009,8 68 -
11:44 10,2 4,6 6,0 Zuiden 19,0 1009,8 68 -
11:49 10,2 4,3   Kalm 19,0 1009,8 67 -
11:54 10,2 4,3 10,0 ZW 19,0 1009,8 67 -
11:59 10,2 4,3   Kalm 19,0 1009,8 67 -
12:04 10,3 4,2 5,0 Zuiden 19,0 1009,8 66 -
12:09 10,4 4,3   Kalm 19,0 1009,5 66 -
12:14 10,6 4,5 3,0 ZZW 15,0 1009,8 66 -
12:19 10,7 4,5   Kalm 15,0 1009,8 66 -
12:24 10,7 4,4 1,0 Westen 11,0 1009,5 65 -
12:29 10,8 4,4 3,0 Zuiden 19,0 1009,5 65 -
12:34 10,8 4,3 29,0 Westen 29,0 1009,5 64 -
12:39 10,8 4,3 5,0 Zuiden 11,0 1009,8 64 -
12:44 10,8 4,0 5,0 Zuiden 5,0 1009,8 63 -
12:49 10,8 4,0   Kalm 11,0 1009,5 63 -
12:54 10,7 3,9   Kalm   1009,5 63 -
12:59 10,7 3,9   Kalm 11,0 1009,8 63 -
13:04 10,6 4,1 1,0 ZZO 5,0 1009,5 64 -
13:09 10,6 4,1 11,0 Zuiden 16,0 1009,5 64 -
13:14 10,5 4,0 10,0 Zuiden 16,0 1009,5 64 -
13:19 10,5 4,1 6,0 ZW 16,0 1009,5 65 -
13:24 10,4 4,1   Kalm 16,0 1009,5 65 -
13:29 10,3 4,0   Kalm 16,0 1009,5 65 -
13:34 10,4 4,1 3,0 ZZO 16,0 1009,5 65 -
13:39 10,5 4,4   Kalm 16,0 1009,5 66 -
13:44 10,6 4,7 18,0 ZZO 18,0 1009,5 67 -
13:49 10,6 4,7 3,0 Zuiden 18,0 1009,1 67 -
13:54 10,7 4,8   Kalm 18,0 1009,1 67 -
13:59 11,0 4,9   Kalm 18,0 1009,1 67 -
14:04 11,1 5,0 1,0 Zuiden 16,0 1009,1 66 -
14:09 11,0 4,7   Kalm 2,0 1009,1 65 -
14:14 10,8 4,8   Kalm 2,0 1009,1 67 -
14:19 10,6 5,0 2,0 Westen 5,0 1010,2 70 -
14:24 10,2 5,0 1,0 Zuiden 2,0 1010,2 74 0,51
14:29 9,2 5,2   Kalm 5,0 1010,2 79 0,76
14:34 8,6 5,2   Kalm 11,0 1009,8 81 0,76
14:39 8,0 5,2 1,0 ZZO 5,0 1009,8 83 0,76
14:44 7,8 5,2 1,0 ZW 2,0 1009,8 85 0,76
14:49 7,6 5,2 1,0 Zuiden 5,0 1009,8 85 0,76
14:54 7,5 5,3   Kalm 2,0 1009,8 86 0,76
14:59 7,6 5,4 3,0 Zuiden 3,0 1009,8 86 0,76
15:04 7,7 5,4   Kalm 3,0 1009,8 86 0,76
15:09 7,7 5,2   Kalm   1009,5 84 0,76
15:14 7,8 5,1   Kalm 3,0 1009,5 83 0,76
15:19 7,8 5,1   Kalm 2,0 1009,5 83 0,76
15:24 7,9 5,0   Kalm 2,0 1009,5 82 0,76
15:29 7,9 4,8 1,0 ZZO 6,0 1009,5 81 -
15:34 7,9 4,7   Kalm 5,0 1009,5 80 -
15:39 8,0 4,7   Kalm 5,0 1009,5 80 -
15:44 8,1 4,6   Kalm   1009,5 79 -
15:49 8,2 4,4   Kalm 6,0 1009,5 77 -
15:54 8,3 4,7 1,0 ZO 2,0 1009,5 78 -
15:59 8,6 4,5   Kalm 2,0 1009,5 77 -
16:04 8,7 4,4   Kalm 5,0 1009,5 75 -
Dagelijkse Samenvatting Maandag 17 februari 2020
Tijd Temp. ( °C ) Dew pt. ( °C ) Wind ( km/h ) van Windvlaag ( km/h ) Luchtdruk ( hPa ) Humid.( % ) Rainrate ( cm )
Hoog11,1 6,7 29,0 Zuiden ( 121/306 ) 29,0 1010,2 86 0,76
Gemiddeld8,4 4,2 1,6 Kalm #142/193 5,4 1008,0 75 1,00
Laag6,4 2,4 -   0,0 1002,7 63 -
Dagelijkse Tabular details for Maandag 17 februari 2020
Tijd Temp. ( °C ) Dew pt. ( °C ) Wind ( km/h ) van Windvlaag ( km/h ) Luchtdruk ( hPa ) Humid.( % ) Rainrate ( cm )
00:04 8,9 6,7   Kalm 10,0 1002,7 85 -
00:09 8,9 6,5 1,0 ZZO 10,0 1002,7 85 -
00:14 8,9 6,5 8,0 ZW 8,0 1003,1 85 -
00:19 9,0 6,7   Kalm 10,0 1003,1 85 -
00:24 9,0 6,4 16,0 Zuiden 16,0 1003,1 84 -
00:29 9,1 6,5   Kalm 16,0 1003,1 84 -
00:34 9,1 6,7 16,0 ZZW 16,0 1003,1 84 -
00:39 9,1 6,4   Kalm 16,0 1003,4 83 -
00:44 9,1 6,4 3,0 ZO 18,0 1003,4 83 -
00:49 9,1 6,4   Kalm 18,0 1003,4 83 -
00:54 9,1 6,4 18,0 OZO 18,0 1003,4 83 -
00:59 9,1 6,4 3,0 Zuiden 3,0 1003,7 83 -
01:04 9,1 6,2   Kalm 8,0 1003,4 82 -
01:09 9,1 6,2   Kalm   1003,4 82 -
01:14 9,1 6,0   Kalm   1003,7 81 -
01:19 9,2 6,1   Kalm   1003,7 81 -
01:24 9,0 5,7   Kalm   1003,7 81 0,51
01:29 8,6 5,5   Kalm   1004,1 83 0,51
01:34 8,1 5,6   Kalm   1004,1 85 0,51
01:39 7,9 5,7   Kalm   1004,1 86 0,51
01:44 7,9 5,7   Kalm   1004,1 86 0,51
01:49 7,8 5,6   Kalm   1004,1 86 0,51
01:54 7,9 5,5   Kalm   1004,4 85 0,51
01:59 7,9 5,5   Kalm   1004,4 85 0,51
02:04 8,1 5,1   Kalm   1004,4 82 0,51
02:09 8,1 5,0   Kalm   1004,4 81 0,51
02:14 8,2 4,9   Kalm   1004,7 80 0,51
02:19 8,3 4,8   Kalm   1004,7 79 0,51
02:24 8,3 4,7   Kalm   1004,7 78 0,51
02:29 8,4 4,6   Kalm   1004,7 77 -
02:34 8,5 4,7   Kalm   1004,7 77 -
02:39 8,6 4,8   Kalm   1005,1 77 -
02:44 8,7 4,9   Kalm   1005,1 77 0,25
02:49 8,7 5,1   Kalm   1005,4 78 0,25
02:54 8,7 4,9   Kalm   1005,4 77 0,25
02:59 8,6 4,6   Kalm   1005,8 76 0,25
03:04 8,6 4,6   Kalm   1005,8 76 0,25
03:09 8,5 4,3   Kalm   1005,8 75 0,25
03:14 8,5 4,1   Kalm   1006,1 74 0,25
03:19 8,5 3,9   Kalm   1006,1 73 0,25
03:24 8,5 3,9   Kalm   1006,4 73 0,25
03:29 8,4 3,8   Kalm   1006,4 73 0,25
03:34 8,3 3,9   Kalm   1006,4 74 0,25
03:39 8,3 3,9   Kalm   1006,4 74 0,25
03:44 8,2 3,8   Kalm   1006,4 74 0,25
03:49 8,2 3,8   Kalm   1006,4 74 -
03:54 8,2 3,8   Kalm   1006,8 74 -
03:59 8,2 3,8   Kalm   1006,8 74 -
04:04 8,1 3,9   Kalm   1007,1 74 -
04:09 8,0 3,6   Kalm   1007,1 74 -
04:14 7,9 3,6   Kalm   1007,1 74 -
04:19 7,9 3,4   Kalm   1007,5 73 -
04:24 7,9 3,2   Kalm   1007,5 72 -
04:29 7,9 3,2   Kalm   1007,5 72 -
04:34 7,8 3,1   Kalm   1007,5 72 -
04:39 7,9 3,0   Kalm   1007,8 71 -
04:44 7,9 3,0   Kalm   1007,5 71 -
04:49 7,9 3,0   Kalm   1007,5 71 -
04:54 7,9 3,1   Kalm   1007,8 72 -
04:59 7,8 3,1   Kalm   1007,8 72 -
05:04 7,7 3,0   Kalm   1007,8 72 -
05:09 7,7 3,0   Kalm   1007,8 72 -
05:14 7,7 3,2   Kalm   1008,1 73 -
05:19 7,6 3,1   Kalm   1008,1 73 -
05:24 7,6 3,1   Kalm   1008,1 73 -
05:29 7,5 3,0   Kalm   1008,5 73 -
05:34 7,5 3,0   Kalm   1008,5 73 -
05:39 7,4 2,9   Kalm   1008,5 73 -
05:44 7,3 2,8   Kalm   1008,5 73 -
05:49 7,3 2,8   Kalm   1008,5 73 -
05:54 7,3 2,8   Kalm   1008,5 73 -
05:59 7,3 2,6   Kalm   1008,5 72 -
06:04 7,3 2,6   Kalm   1008,5 72 -
06:09 7,2 2,5   Kalm   1008,8 72 -
06:14 7,2 2,5   Kalm   1008,8 72 -
06:19 7,1 2,4   Kalm   1008,8 72 -
06:24 7,1 2,6   Kalm   1008,8 73 -
06:29 7,1 2,6   Kalm   1008,8 73 -
06:34 7,1 2,6   Kalm   1008,8 73 -
06:39 7,0 2,6   Kalm   1008,8 74 -
06:44 6,9 2,6   Kalm   1008,8 74 -
06:49 6,9 2,8   Kalm   1008,8 75 -
06:54 6,8 2,7   Kalm   1008,8 75 -
06:59 6,8 2,7   Kalm   1008,8 75 -
07:04 6,8 2,9   Kalm   1008,8 76 -
07:09 6,8 2,9   Kalm   1009,1 76 -
07:14 6,7 2,8   Kalm   1009,1 76 -
07:19 6,7 2,9   Kalm   1009,1 77 -
07:24 6,6 2,7   Kalm   1009,1 76 -
07:29 6,6 2,9   Kalm   1009,1 77 -
07:34 6,6 2,9   Kalm   1009,1 77 -
07:39 6,6 2,9   Kalm   1009,1 77 -
07:44 6,5 2,8   Kalm   1009,1 77 -
07:49 6,4 2,8   Kalm   1009,1 77 -
07:54 6,4 2,7   Kalm   1009,1 77 -
07:59 6,4 2,7   Kalm   1009,1 77 -
08:04 6,4 2,8   Kalm   1009,1 77 -
08:09 6,4 2,8   Kalm   1009,1 78 -
08:14 6,4 2,8   Kalm   1009,1 78 -
08:19 6,5 3,1   Kalm   1009,1 79 -
08:24 6,6 3,2   Kalm   1009,1 79 -
08:29 6,6 3,2   Kalm   1009,5 79 -
08:34 6,7 3,5   Kalm   1009,1 80 -
08:39 6,7 3,5   Kalm   1009,1 80 -
08:44 6,7 3,5   Kalm   1009,1 80 -
08:49 6,8 3,6 2,0 Zuiden 2,0 1009,5 80 -
08:54 6,8 3,6   Kalm 5,0 1009,5 80 -
08:59 6,9 3,7   Kalm   1009,1 80 -
09:04 7,1 3,9 1,0 ZZO 5,0 1009,5 80 -
09:09 7,2 4,0   Kalm 2,0 1009,5 80 -
09:14 7,3 3,9 2,0 ZZW 2,0 1009,5 79 -
09:19 7,4 4,0 1,0 ZZW 6,0 1009,5 79 -
09:24 7,6 4,0   Kalm   1009,5 78 -
09:29 7,6 4,0 1,0 ZZW 15,0 1009,5 78 -
09:34 7,7 4,1 1,0 Zuiden 6,0 1009,5 78 -
09:39 7,8 4,2 20,0 Zuiden 19,0 1009,5 78 -
09:44 7,9 4,2 11,0 ZZW 13,0 1009,5 78 -
09:49 8,0 4,2 8,0 Zuiden 23,0 1009,5 77 -
09:54 8,1 4,3 1,0 Zuiden 2,0 1009,5 77 -
09:59 8,2 4,4 10,0 Zuiden 16,0 1009,5 77 -
10:04 8,3 4,4 5,0 ZZW 5,0 1009,5 77 -
10:09 8,3 4,3   Kalm 16,0 1009,5 76 -
10:14 8,4 4,4   Kalm 2,0 1009,5 76 -
10:19 8,6 4,6   Kalm 5,0 1009,5 76 -
10:24 8,7 4,6 1,0 Zuiden 2,0 1009,5 76 -
10:29 8,7 4,5   Kalm 13,0 1009,5 75 -
10:34 8,8 4,6   Kalm 19,0 1009,5 75 -
10:39 8,9 4,5 5,0 Zuiden 23,0 1009,5 74 -
10:44 9,1 4,7 13,0 ZZO 23,0 1009,5 74 -
10:49 9,2 4,8   Kalm 23,0 1009,5 74 -
10:54 9,3 4,8 1,0 WZW 5,0 1009,5 74 -
10:59 9,4 4,6   Kalm 5,0 1009,8 72 -
11:04 9,6 4,6   Kalm 10,0 1009,8 71 -
11:09 9,7 4,7   Kalm 16,0 1009,8 71 -
11:14 9,8 4,7 3,0 ZZW 6,0 1009,8 71 -
11:19 9,9 4,7 16,0 ZW 16,0 1009,8 70 -
11:24 9,9 4,7   Kalm 16,0 1009,8 70 -
11:29 10,0 4,6   Kalm 10,0 1010,2 69 -
11:34 10,1 4,6   Kalm 10,0 1010,2 69 -
11:39 10,1 4,5 8,0 ZZO 10,0 1009,8 68 -
11:44 10,2 4,6 6,0 Zuiden 19,0 1009,8 68 -
11:49 10,2 4,3   Kalm 19,0 1009,8 67 -
11:54 10,2 4,3 10,0 ZW 19,0 1009,8 67 -
11:59 10,2 4,3   Kalm 19,0 1009,8 67 -
12:04 10,3 4,2 5,0 Zuiden 19,0 1009,8 66 -
12:09 10,4 4,3   Kalm 19,0 1009,5 66 -
12:14 10,6 4,5 3,0 ZZW 15,0 1009,8 66 -
12:19 10,7 4,5   Kalm 15,0 1009,8 66 -
12:24 10,7 4,4 1,0 Westen 11,0 1009,5 65 -
12:29 10,8 4,4 3,0 Zuiden 19,0 1009,5 65 -
12:34 10,8 4,3 29,0 Westen 29,0 1009,5 64 -
12:39 10,8 4,3 5,0 Zuiden 11,0 1009,8 64 -
12:44 10,8 4,0 5,0 Zuiden 5,0 1009,8 63 -
12:49 10,8 4,0   Kalm 11,0 1009,5 63 -
12:54 10,7 3,9   Kalm   1009,5 63 -
12:59 10,7 3,9   Kalm 11,0 1009,8 63 -
13:04 10,6 4,1 1,0 ZZO 5,0 1009,5 64 -
13:09 10,6 4,1 11,0 Zuiden 16,0 1009,5 64 -
13:14 10,5 4,0 10,0 Zuiden 16,0 1009,5 64 -
13:19 10,5 4,1 6,0 ZW 16,0 1009,5 65 -
13:24 10,4 4,1   Kalm 16,0 1009,5 65 -
13:29 10,3 4,0   Kalm 16,0 1009,5 65 -
13:34 10,4 4,1 3,0 ZZO 16,0 1009,5 65 -
13:39 10,5 4,4   Kalm 16,0 1009,5 66 -
13:44 10,6 4,7 18,0 ZZO 18,0 1009,5 67 -
13:49 10,6 4,7 3,0 Zuiden 18,0 1009,1 67 -
13:54 10,7 4,8   Kalm 18,0 1009,1 67 -
13:59 11,0 4,9   Kalm 18,0 1009,1 67 -
14:04 11,1 5,0 1,0 Zuiden 16,0 1009,1 66 -
14:09 11,0 4,7   Kalm 2,0 1009,1 65 -
14:14 10,8 4,8   Kalm 2,0 1009,1 67 -
14:19 10,6 5,0 2,0 Westen 5,0 1010,2 70 -
14:24 10,2 5,0 1,0 Zuiden 2,0 1010,2 74 0,51
14:29 9,2 5,2   Kalm 5,0 1010,2 79 0,76
14:34 8,6 5,2   Kalm 11,0 1009,8 81 0,76
14:39 8,0 5,2 1,0 ZZO 5,0 1009,8 83 0,76
14:44 7,8 5,2 1,0 ZW 2,0 1009,8 85 0,76
14:49 7,6 5,2 1,0 Zuiden 5,0 1009,8 85 0,76
14:54 7,5 5,3   Kalm 2,0 1009,8 86 0,76
14:59 7,6 5,4 3,0 Zuiden 3,0 1009,8 86 0,76
15:04 7,7 5,4   Kalm 3,0 1009,8 86 0,76
15:09 7,7 5,2   Kalm   1009,5 84 0,76
15:14 7,8 5,1   Kalm 3,0 1009,5 83 0,76
15:19 7,8 5,1   Kalm 2,0 1009,5 83 0,76
15:24 7,9 5,0   Kalm 2,0 1009,5 82 0,76
15:29 7,9 4,8 1,0 ZZO 6,0 1009,5 81 -
15:34 7,9 4,7   Kalm 5,0 1009,5 80 -
15:39 8,0 4,7   Kalm 5,0 1009,5 80 -
15:44 8,1 4,6   Kalm   1009,5 79 -
15:49 8,2 4,4   Kalm 6,0 1009,5 77 -
15:54 8,3 4,7 1,0 ZO 2,0 1009,5 78 -
15:59 8,6 4,5   Kalm 2,0 1009,5 77 -
16:04 8,7 4,4   Kalm 5,0 1009,5 75 -

Download your copy of this data-set  here

Our weather-data as stored at Weather Underground. Script ontwikkeld door Jim McMurry. Aangepast voor de template door Leuven-Template.eu

U vindt ons ook hier:

Het Weer Aktueel

European Weather Network

Weather Underground

Benelux Weer Netwerk

Apparatuur in gebruik:

Weerstation
Davis VP2

Weerprogramma
Meteobridge

Weercomputer
Meteobridge Pro+

Webleverancier
vip.nl

Davis VP2

Meteobridge

Meteobridge Pro+

vip.nl